STARLINK-11665, 63549

Orbit data source: Space-Track

STARLINK-11665, 63549 is a payload satellite owned by SpaceX/Seattle (US) in LEO that was launched on Sun, 13 Apr 2025 UTC via an FALCON 9 launch vehicle from the Air Force Eastern Test Range (AFETR). Payload-class satellites include a variety of spacecraft equipped with specific instruments for various scientific and technological missions. These include communications satellites like Starlink; space stations such as the ISS; scientific satellites like the Hubble; Earth observation satellites from companies like Planet Labs, Umbra, and HawkEye 360; GPS; miniature CubeSats for education and research; and military/defense satellites.

Loading next visibility...
Identifier
63549, 2025-075B
Orbit
LEO
Country
Flag of USUS
Related business
Manufacturer
SpaceX/Seattle
Mission
Operational Commercial Communications
Bus & Motor
STARLINK V2MD, Unknown motor
Mass
960 kg wet, ~910 kg dry
Launch date (UTC)
2025-04-13 (1 year ago)
Launch vehicle
FALCON 9
Launch site
Air Force Eastern Test Range (AFETR)
Object type
Payload
Rocket body
Debris
Shape & HBR
Box + 2 Pan, 18.1 m
Radar Cross Section
36.964 m², Large (>1 m²)

Expand to show TLE details & history
Last TLE update: 1 day ago

TLE from 1 day ago
0 STARLINK-11665
1 63549U 25075B   26170.64125534  .00194987  00000-0  14757-2 0  9996
2 63549  42.9988 259.2139 0001864 297.5307  62.5371 15.71032847 69289
Epoch: 2026-06-19T15:23Z
TLE epoch observation values (Epoch: 2026-06-19T15:23:24.461Z)
Latitude
-0.00003°
Longitude
120.49464°
Altitude
355.136 km
Speed
7.698 km/s
True Right ascension
17h 16m 51s
True Declination
0° 00' 00"
Sunlit
Object was in full shadow at epoch
Visualization orbit readout
Latitude
Unknown
Longitude
Unknown
Altitude
Unknown
Speed
Unknown
Apparent Right ascension
Unknown
Apparent Declination
Unknown
Sunlit
N/A
Visualization observer readout
Local Sidereal Time
10:19:04
Azimuth
Unknown
Elevation
Unknown
Doppler factor
Unknown
Orbital elements
Apogee altitude
359.181 km
Perigee altitude
356.67 km
Semi-major axis
6,736.063 km
Eccentricity
0.00019
Inclination
42.9988°
RAAN
259.2139°
Arg. of periapsis
297.5307°
True anomaly
62.55605°
Mean anomaly
62.5371°
Eccentric anomaly
62.54658°
Mean motion
3.92585 °/min
Orbital period
91.7 mins
BSTAR
0.0014757
Loading maneuver chart data...
Computing Atmospheric mass density...
Loading historical data...
Loading historical data...
Loading historical data...
Loading historical data...
Loading historical data...
Loading historical data...
Loading historical data...

Documentation

Showing up to 5 results
|